Time,TemperatureF,DewpointF,PressureIn,WindDirection,WindDirectionDegrees,WindSpeedMPH,WindSpeedGustMPH,Humidity,HourlyPrecipIn,Conditions,Clouds,dailyrainin,SoftwareType,DateUTC
2013-03-03 00:01:00,27.2,20.0,29.78,West,268,6.0,-999.0,73,-99.99,,,0.00,weatherlink.com 1.10,2013-03-03 05:01:00,
2013-03-03 00:16:00,27.2,20.0,29.78,NW,309,6.0,-999.0,74,-99.99,,,0.00,weatherlink.com 1.10,2013-03-03 05:16:00,
2013-03-03 00:32:00,27.2,20.0,29.78,North,355,4.0,-999.0,74,-99.99,,,0.00,weatherlink.com 1.10,2013-03-03 05:32:00,
2013-03-03 00:47:00,27.1,20.0,29.78,NW,311,5.0,-999.0,74,-99.99,,,0.00,weatherlink.com 1.10,2013-03-03 05:47:00,
2013-03-03 01:02:00,27.0,20.0,29.78,West,267,7.0,-999.0,74,-99.99,,,0.00,weatherlink.com 1.10,2013-03-03 06:02:00,
2013-03-03 01:21:00,26.9,19.0,29.77,NW,321,6.0,-999.0,72,-99.99,,,0.00,weatherlink.com 1.10,2013-03-03 06:21:00,
2013-03-03 01:33:00,26.8,19.0,29.77,North,10,8.0,-999.0,72,-99.99,,,0.00,weatherlink.com 1.10,2013-03-03 06:33:00,
2013-03-03 01:48:00,26.7,19.0,29.77,NW,304,1.0,-999.0,73,-99.99,,,0.00,weatherlink.com 1.10,2013-03-03 06:48:00,
2013-03-03 02:03:00,26.5,19.0,29.77,WNW,290,2.0,-999.0,72,-99.99,,,0.00,weatherlink.com 1.10,2013-03-03 07:03:00,
2013-03-03 02:18:00,26.3,18.0,29.77,NW,306,7.0,-999.0,72,-99.99,,,0.00,weatherlink.com 1.10,2013-03-03 07:18:00,
2013-03-03 02:33:00,26.1,18.0,29.77,WNW,287,3.0,-999.0,72,-99.99,,,0.00,weatherlink.com 1.10,2013-03-03 07:33:00,
2013-03-03 02:50:00,25.8,18.0,29.76,West,259,5.0,-999.0,73,-99.99,,,0.00,weatherlink.com 1.10,2013-03-03 07:50:00,
2013-03-03 03:05:00,25.6,18.0,29.76,NNW,327,2.0,-999.0,73,-99.99,,,0.00,weatherlink.com 1.10,2013-03-03 08:05:00,
2013-03-03 03:20:00,25.4,18.0,29.76,WNW,291,1.0,-999.0,74,-99.99,,,0.00,weatherlink.com 1.10,2013-03-03 08:20:00,
2013-03-03 03:35:00,25.2,18.0,29.76,NW,315,5.0,-999.0,74,-99.99,,,0.00,weatherlink.com 1.10,2013-03-03 08:35:00,
2013-03-03 03:50:00,25.1,18.0,29.76,NW,311,7.0,-999.0,74,-99.99,,,0.00,weatherlink.com 1.10,2013-03-03 08:50:00,
2013-03-03 04:05:00,25.0,18.0,29.76,West,279,2.0,-999.0,74,-99.99,,,0.00,weatherlink.com 1.10,2013-03-03 09:05:00,
2013-03-03 04:21:00,25.0,18.0,29.76,South,189,2.0,-999.0,74,-99.99,,,0.00,weatherlink.com 1.10,2013-03-03 09:21:00,
2013-03-03 04:36:00,24.8,18.0,29.77,WNW,300,1.0,-999.0,74,-99.99,,,0.00,weatherlink.com 1.10,2013-03-03 09:36:00,
2013-03-03 04:51:00,24.7,17.0,29.77,WNW,294,2.0,-999.0,73,-99.99,,,0.00,weatherlink.com 1.10,2013-03-03 09:51:00,
2013-03-03 05:06:00,24.7,17.0,29.77,NW,310,4.0,-999.0,73,-99.99,,,0.00,weatherlink.com 1.10,2013-03-03 10:06:00,
2013-03-03 05:22:00,24.6,17.0,29.77,NW,310,6.0,-999.0,74,-99.99,,,0.00,weatherlink.com 1.10,2013-03-03 10:22:00,
2013-03-03 05:37:00,24.5,18.0,29.77,West,280,6.0,-999.0,75,-99.99,,,0.00,weatherlink.com 1.10,2013-03-03 10:37:00,
2013-03-03 05:52:00,24.5,18.0,29.77,WNW,288,7.0,-999.0,75,-99.99,,,0.00,weatherlink.com 1.10,2013-03-03 10:52:00,
2013-03-03 06:07:00,24.5,18.0,29.77,West,277,3.0,-999.0,75,-99.99,,,0.00,weatherlink.com 1.10,2013-03-03 11:07:00,
2013-03-03 06:23:00,24.5,18.0,29.77,West,260,3.0,-999.0,76,-99.99,,,0.00,weatherlink.com 1.10,2013-03-03 11:23:00,
2013-03-03 06:41:00,24.6,18.0,29.77,NW,319,1.0,-999.0,76,-99.99,,,0.00,weatherlink.com 1.10,2013-03-03 11:41:00,
2013-03-03 06:53:00,24.6,18.0,29.77,West,261,6.0,-999.0,76,-99.99,,,0.00,weatherlink.com 1.10,2013-03-03 11:53:00,
2013-03-03 07:08:00,24.7,18.0,29.78,NW,319,3.0,-999.0,77,-99.99,,,0.00,weatherlink.com 1.10,2013-03-03 12:08:00,
2013-03-03 07:25:00,24.8,19.0,29.77,NNW,348,5.0,-999.0,77,-99.99,,,0.00,weatherlink.com 1.10,2013-03-03 12:25:00,
2013-03-03 07:40:00,25.0,18.0,29.77,North,5,6.0,-999.0,76,-99.99,,,0.00,weatherlink.com 1.10,2013-03-03 12:40:00,
2013-03-03 07:55:00,25.4,19.0,29.78,NW,317,4.0,-999.0,76,-99.99,,,0.00,weatherlink.com 1.10,2013-03-03 12:55:00,
2013-03-03 08:10:00,25.7,19.0,29.78,ENE,74,4.0,-999.0,75,-99.99,,,0.00,weatherlink.com 1.10,2013-03-03 13:10:00,
2013-03-03 08:25:00,26.1,19.0,29.77,NW,311,6.0,-999.0,74,-99.99,,,0.00,weatherlink.com 1.10,2013-03-03 13:25:00,
2013-03-03 08:40:00,26.6,19.0,29.77,WNW,299,5.0,-999.0,72,-99.99,,,0.00,weatherlink.com 1.10,2013-03-03 13:40:00,
2013-03-03 08:55:00,26.8,19.0,29.77,NNW,338,4.0,-999.0,71,-99.99,,,0.00,weatherlink.com 1.10,2013-03-03 13:55:00,
2013-03-03 09:12:00,27.3,18.0,29.77,North,355,6.0,-999.0,68,-99.99,,,0.00,weatherlink.com 1.10,2013-03-03 14:12:00,
2013-03-03 09:26:00,27.5,18.0,29.77,West,275,8.0,-999.0,67,-99.99,,,0.00,weatherlink.com 1.10,2013-03-03 14:26:00,
2013-03-03 09:41:00,28.2,18.0,29.78,WNW,294,8.0,-999.0,66,-99.99,,,0.00,weatherlink.com 1.10,2013-03-03 14:41:00,
2013-03-03 09:56:00,28.3,17.0,29.77,NW,311,1.0,-999.0,64,-99.99,,,0.00,weatherlink.com 1.10,2013-03-03 14:56:00,
2013-03-03 10:12:00,28.3,18.0,29.77,West,271,5.0,-999.0,65,-99.99,,,0.00,weatherlink.com 1.10,2013-03-03 15:12:00,
2013-03-03 10:27:00,28.1,18.0,29.77,West,267,5.0,-999.0,65,-99.99,,,0.00,weatherlink.com 1.10,2013-03-03 15:27:00,
2013-03-03 10:42:00,28.6,18.0,29.77,WNW,284,3.0,-999.0,64,-99.99,,,0.00,weatherlink.com 1.10,2013-03-03 15:42:00,
2013-03-03 10:58:00,28.9,18.0,29.77,NW,324,4.0,-999.0,63,-99.99,,,0.00,weatherlink.com 1.10,2013-03-03 15:58:00,
2013-03-03 11:13:00,29.0,18.0,29.77,North,5,8.0,-999.0,63,-99.99,,,0.00,weatherlink.com 1.10,2013-03-03 16:13:00,
2013-03-03 11:28:00,29.6,18.0,29.77,WSW,251,3.0,-999.0,62,-99.99,,,0.00,weatherlink.com 1.10,2013-03-03 16:28:00,
2013-03-03 11:43:00,29.6,18.0,29.76,SW,233,4.0,-999.0,63,-99.99,,,0.00,weatherlink.com 1.10,2013-03-03 16:43:00,
2013-03-03 12:01:00,29.5,19.0,29.76,WSW,248,6.0,-999.0,64,-99.99,,,0.00,weatherlink.com 1.10,2013-03-03 17:01:00,
2013-03-03 12:15:00,29.8,18.0,29.76,NW,319,2.0,-999.0,63,-99.99,,,0.00,weatherlink.com 1.10,2013-03-03 17:15:00,
2013-03-03 12:30:00,30.2,19.0,29.75,WNW,293,2.0,-999.0,63,-99.99,,,0.00,weatherlink.com 1.10,2013-03-03 17:30:00,
2013-03-03 12:45:00,30.4,19.0,29.75,West,260,8.0,-999.0,62,-99.99,,,0.00,weatherlink.com 1.10,2013-03-03 17:45:00,
2013-03-03 13:00:00,30.5,18.0,29.75,NNW,343,6.0,-999.0,61,-99.99,,,0.00,weatherlink.com 1.10,2013-03-03 18:00:00,
2013-03-03 13:15:00,30.6,19.0,29.74,WNW,282,1.0,-999.0,62,-99.99,,,0.00,weatherlink.com 1.10,2013-03-03 18:15:00,
2013-03-03 13:30:00,31.2,19.0,29.73,SW,227,6.0,-999.0,61,-99.99,,,0.00,weatherlink.com 1.10,2013-03-03 18:30:00,
2013-03-03 13:46:00,31.3,19.0,29.73,WSW,248,8.0,-999.0,60,-99.99,,,0.00,weatherlink.com 1.10,2013-03-03 18:46:00,
2013-03-03 14:01:00,31.7,19.0,29.73,NW,325,7.0,-999.0,60,-99.99,,,0.00,weatherlink.com 1.10,2013-03-03 19:01:00,
2013-03-03 14:16:00,31.4,19.0,29.73,WNW,286,6.0,-999.0,60,-99.99,,,0.00,weatherlink.com 1.10,2013-03-03 19:16:00,
2013-03-03 14:31:00,31.8,20.0,29.73,WNW,302,6.0,-999.0,61,-99.99,,,0.00,weatherlink.com 1.10,2013-03-03 19:31:00,
2013-03-03 14:47:00,32.6,20.0,29.73,WNW,291,4.0,-999.0,61,-99.99,,,0.00,weatherlink.com 1.10,2013-03-03 19:47:00,
2013-03-03 15:02:00,32.7,20.0,29.73,West,275,9.0,-999.0,59,-99.99,,,0.00,weatherlink.com 1.10,2013-03-03 20:02:00,
2013-03-03 15:17:00,32.8,19.0,29.73,NE,42,9.0,-999.0,57,-99.99,,,0.00,weatherlink.com 1.10,2013-03-03 20:17:00,
2013-03-03 15:32:00,32.7,19.0,29.73,WNW,283,6.0,-999.0,57,-99.99,,,0.00,weatherlink.com 1.10,2013-03-03 20:32:00,
2013-03-03 15:48:00,33.8,20.0,29.73,North,5,5.0,-999.0,57,-99.99,,,0.00,weatherlink.com 1.10,2013-03-03 20:48:00,
2013-03-03 16:03:00,33.0,20.0,29.73,West,260,6.0,-999.0,58,-99.99,,,0.00,weatherlink.com 1.10,2013-03-03 21:03:00,
2013-03-03 16:18:00,32.8,19.0,29.73,WNW,285,10.0,-999.0,58,-99.99,,,0.00,weatherlink.com 1.10,2013-03-03 21:18:00,
2013-03-03 16:33:00,31.8,19.0,29.74,SSW,213,6.0,-999.0,59,-99.99,,,0.00,weatherlink.com 1.10,2013-03-03 21:33:00,
2013-03-03 16:49:00,31.2,19.0,29.74,WNW,301,5.0,-999.0,60,-99.99,,,0.00,weatherlink.com 1.10,2013-03-03 21:49:00,
2013-03-03 17:05:00,31.1,19.0,29.75,WSW,255,7.0,-999.0,61,-99.99,,,0.00,weatherlink.com 1.10,2013-03-03 22:05:00,
2013-03-03 17:21:00,30.9,19.0,29.75,WNW,287,5.0,-999.0,62,-99.99,,,0.00,weatherlink.com 1.10,2013-03-03 22:21:00,
2013-03-03 17:35:00,30.9,20.0,29.76,North,355,7.0,-999.0,63,-99.99,,,0.00,weatherlink.com 1.10,2013-03-03 22:35:00,
2013-03-03 17:50:00,30.6,19.0,29.76,WNW,302,0.0,-999.0,63,-99.99,,,0.00,weatherlink.com 1.10,2013-03-03 22:50:00,
2013-03-03 18:05:00,30.4,19.0,29.76,NW,318,6.0,-999.0,63,-99.99,,,0.00,weatherlink.com 1.10,2013-03-03 23:05:00,
2013-03-03 18:20:00,30.2,19.0,29.77,WNW,292,13.0,-999.0,63,-99.99,,,0.00,weatherlink.com 1.10,2013-03-03 23:20:00,
2013-03-03 18:36:00,30.0,19.0,29.77,WSW,258,6.0,-999.0,63,-99.99,,,0.00,weatherlink.com 1.10,2013-03-03 23:36:00,
2013-03-03 18:51:00,29.8,19.0,29.77,WSW,258,5.0,-999.0,64,-99.99,,,0.00,weatherlink.com 1.10,2013-03-03 23:51:00,
2013-03-03 19:06:00,29.7,19.0,29.77,WNW,286,6.0,-999.0,65,-99.99,,,0.00,weatherlink.com 1.10,2013-03-04 00:06:00,
2013-03-03 19:21:00,29.7,19.0,29.78,WNW,296,8.0,-999.0,64,-99.99,,,0.00,weatherlink.com 1.10,2013-03-04 00:21:00,
2013-03-03 19:36:00,29.7,19.0,29.78,West,277,3.0,-999.0,64,-99.99,,,0.00,weatherlink.com 1.10,2013-03-04 00:36:00,
2013-03-03 19:52:00,29.6,19.0,29.78,WNW,299,14.0,-999.0,64,-99.99,,,0.00,weatherlink.com 1.10,2013-03-04 00:52:00,
2013-03-03 20:07:00,29.4,19.0,29.79,NW,316,6.0,-999.0,65,-99.99,,,0.00,weatherlink.com 1.10,2013-03-04 01:07:00,
2013-03-03 20:22:00,29.4,19.0,29.79,NW,323,12.0,-999.0,65,-99.99,,,0.00,weatherlink.com 1.10,2013-03-04 01:22:00,
2013-03-03 20:37:00,29.2,19.0,29.80,WNW,285,11.0,-999.0,65,-99.99,,,0.00,weatherlink.com 1.10,2013-03-04 01:37:00,
2013-03-03 20:53:00,29.0,19.0,29.80,NNW,333,8.0,-999.0,65,-99.99,,,0.00,weatherlink.com 1.10,2013-03-04 01:53:00,
2013-03-03 21:08:00,28.8,19.0,29.80,West,270,9.0,-999.0,66,-99.99,,,0.00,weatherlink.com 1.10,2013-03-04 02:08:00,
2013-03-03 21:23:00,28.5,18.0,29.80,WNW,302,9.0,-999.0,66,-99.99,,,0.00,weatherlink.com 1.10,2013-03-04 02:23:00,
2013-03-03 21:38:00,28.3,18.0,29.79,NNW,327,14.0,-999.0,66,-99.99,,,0.00,weatherlink.com 1.10,2013-03-04 02:38:00,
2013-03-03 21:55:00,28.0,18.0,29.80,WSW,255,5.0,-999.0,67,-99.99,,,0.00,weatherlink.com 1.10,2013-03-04 02:55:00,
2013-03-03 22:10:00,27.8,18.0,29.80,NNW,346,11.0,-999.0,67,-99.99,,,0.00,weatherlink.com 1.10,2013-03-04 03:10:00,
2013-03-03 22:25:00,27.6,18.0,29.80,North,5,11.0,-999.0,66,-99.99,,,0.00,weatherlink.com 1.10,2013-03-04 03:25:00,
2013-03-03 22:41:00,27.4,17.0,29.81,NW,319,4.0,-999.0,66,-99.99,,,0.00,weatherlink.com 1.10,2013-03-04 03:41:00,
2013-03-03 22:55:00,27.2,17.0,29.82,West,278,5.0,-999.0,66,-99.99,,,0.00,weatherlink.com 1.10,2013-03-04 03:55:00,
2013-03-03 23:10:00,27.0,17.0,29.82,WNW,302,6.0,-999.0,66,-99.99,,,0.00,weatherlink.com 1.10,2013-03-04 04:10:00,
2013-03-03 23:25:00,26.7,17.0,29.81,WSW,255,6.0,-999.0,66,-99.99,,,0.00,weatherlink.com 1.10,2013-03-04 04:25:00,
2013-03-03 23:41:00,26.5,17.0,29.82,NNE,32,2.0,-999.0,67,-99.99,,,0.00,weatherlink.com 1.10,2013-03-04 04:41:00,
2013-03-03 23:56:00,26.2,17.0,29.82,WNW,299,5.0,-999.0,67,-99.99,,,0.00,weatherlink.com 1.10,2013-03-04 04:56:00,